Weather History for Rolla, ND

Change the Weather History Date:

Wednesday, February 6, 2013

  Actual Average (KRUG) Record (KRUG)
Temperature  
Mean Temperature 10 °F -  
Max Temperature 19 °F 21 °F 52 °F (1991)
Min Temperature 1 °F 0 °F -24 °F (1959)
Degree Days  
Heating Degree Days 55    
Moisture  
Dew Point 12 °F    
Average Humidity 96    
Maximum Humidity 100    
Minimum Humidity 85    
Precipitation  
Precipitation 1.17 in - - ()
Sea Level Pressure  
Sea Level Pressure 29.92 in    
Wind  
Wind Speed 11 mph (ENE)    
Max Wind Speed 18 mph    
Max Gust Speed -    
Visibility 8 miles    
Events Rain , Snow    
Averages and records for this station are not official NWS values.
T = Trace of Precipitation, MM = Missing Value Source: NWS Daily Summary

Daily Weather History Graph

Daily Weather History Graph

Search for Another Location

Airport:

Trip Planner

Search our weather history database for the weather conditions in past years. The results will help you decide how hot, cold, wet, or windy it might be!

Date:

Astronomy

Feb. 06, 2013 Rise Set
Actual Time 8:00 AM CST 5:44 PM CST
Civil Twilight 7:27 AM CST 6:18 PM CST
Nautical Twilight 6:50 AM CST 6:55 PM CST
Astronomical Twilight 6:13 AM CST 7:32 PM CST
Moon 4:56 AM CST (2/6) 1:55 PM CST (2/6)
Length of Visible Light 10h 50m
Length of Day
9h 44m
Waning Crescent, 17% of the Moon is Illuminated
Feb 6
Waning Crescent
Feb 10
New
Feb 17
First Quarter
Feb 25
Full
Mar 4
Last Quarter

Hourly Weather History & Observations

Time (CST) Temp. Windchill Dew Point Humidity Pressure Visibility Wind Dir Wind Speed Gust Speed Precip Events Conditions
12:15 AM 12.2 °F -3.1 °F 10.4 °F 92% 29.86 in 10.0 mi WSW 13.8 mph - N/A   Overcast
12:35 AM 14.0 °F 0.5 °F 10.4 °F 86% 29.86 in 10.0 mi WSW 11.5 mph - N/A   Overcast
1:15 AM 15.8 °F 4.2 °F 14.0 °F 93% 29.86 in 10.0 mi SW 9.2 mph - N/A   Overcast
1:35 AM 15.8 °F 3.4 °F 14.0 °F 93% 29.86 in 10.0 mi SW 10.4 mph - N/A   Overcast
1:55 AM 15.8 °F 2.7 °F 14.0 °F 93% 29.85 in 10.0 mi SW 11.5 mph - N/A   Overcast
2:15 AM 15.8 °F 2.7 °F 14.0 °F 93% 29.85 in 10.0 mi SW 11.5 mph - N/A   Mostly Cloudy
2:35 AM 15.8 °F 2.7 °F 15.8 °F 100% 29.84 in 3.0 mi SW 11.5 mph - N/A Snow Light Snow
2:55 AM 15.8 °F 4.2 °F 15.8 °F 100% 29.84 in 2.0 mi SW 9.2 mph - 0.01 in Snow Light Snow
3:15 AM 15.8 °F 4.2 °F 15.8 °F 100% 29.83 in 1.8 mi SSW 9.2 mph - 0.01 in Snow Light Snow
3:35 AM 15.8 °F 6.1 °F 15.8 °F 100% 29.83 in 1.8 mi SSW 6.9 mph - 0.04 in Snow Light Snow
3:55 AM 15.8 °F 7.2 °F 15.8 °F 100% 29.82 in 2.5 mi South 5.8 mph - 0.07 in Snow Light Snow
4:15 AM 15.8 °F 7.2 °F 15.8 °F 100% 29.81 in 2.0 mi South 5.8 mph - 0.02 in Snow Light Snow
4:35 AM 17.6 °F 9.3 °F 17.6 °F 100% 29.81 in 5.0 mi SSW 5.8 mph - 0.04 in Snow Light Snow
4:55 AM 17.6 °F 8.2 °F 17.6 °F 100% 29.81 in 3.0 mi South 6.9 mph - 0.06 in Snow Light Snow
5:15 AM 17.6 °F 9.3 °F 17.6 °F 100% 29.80 in 5.0 mi South 5.8 mph - 0.02 in Snow Light Snow
5:35 AM 17.6 °F 8.2 °F 17.6 °F 100% 29.80 in 7.0 mi South 6.9 mph - 0.03 in Snow Light Snow
5:55 AM 19.4 °F 11.5 °F 19.4 °F 100% 29.81 in 4.0 mi SSE 5.8 mph - 0.05 in Snow Light Snow
6:15 AM 19.4 °F 8.6 °F 19.4 °F 100% 29.81 in 7.0 mi South 9.2 mph - N/A Snow Light Snow
6:35 AM 19.4 °F 8.6 °F 19.4 °F 100% 29.82 in 2.0 mi South 9.2 mph - 0.07 in Snow Light Snow
6:55 AM 19.4 °F 9.5 °F 19.4 °F 100% 29.81 in 1.0 mi South 8.1 mph - 0.16 in Snow Light Snow
7:15 AM 19.4 °F 8.6 °F 19.4 °F 100% 29.81 in 1.5 mi SSE 9.2 mph - 0.04 in Snow Light Snow
7:35 AM 19.4 °F 8.6 °F 19.4 °F 100% 29.80 in 7.0 mi SSE 9.2 mph - 0.08 in Snow Light Snow
7:55 AM 19.4 °F 7.9 °F 19.4 °F 100% 29.79 in 6.0 mi SE 10.4 mph - 0.10 in Snow Light Snow
8:15 AM 19.4 °F 7.2 °F 19.4 °F 100% 29.79 in 10.0 mi SE 11.5 mph - N/A Snow Light Snow
8:35 AM 19.4 °F 7.9 °F 19.4 °F 100% 29.80 in 10.0 mi SE 10.4 mph - N/A   Overcast
8:55 AM 19.4 °F 8.6 °F 19.4 °F 100% 29.81 in 10.0 mi ESE 9.2 mph - N/A   Overcast
9:15 AM 19.4 °F 9.5 °F 19.4 °F 100% 29.82 in 5.0 mi ESE 8.1 mph - 0.01 in Snow Light Snow
9:35 AM 19.4 °F 10.4 °F 19.4 °F 100% 29.83 in 5.0 mi ESE 6.9 mph - 0.03 in Snow Light Snow
9:55 AM 19.4 °F 10.4 °F 19.4 °F 100% 29.85 in 5.0 mi East 6.9 mph - 0.12 in Snow Light Snow
10:15 AM 19.4 °F 8.6 °F 19.4 °F 100% 29.85 in 4.0 mi ENE 9.2 mph - 0.02 in Snow Light Snow
10:35 AM 19.4 °F 6.6 °F 19.4 °F 100% 29.85 in 5.0 mi ENE 12.7 mph - 0.09 in Snow Light Snow
10:55 AM 19.4 °F 6.0 °F 19.4 °F 100% 29.85 in 5.0 mi ENE 13.8 mph - 0.16 in Snow Light Snow
11:15 AM 19.4 °F 7.2 °F 19.4 °F 100% 29.85 in 0.8 mi East 11.5 mph - 0.17 in Snow Light Snow
11:35 AM 17.6 °F 4.3 °F 17.6 °F 100% 29.86 in 0.8 mi East 12.7 mph - 0.40 in Snow Light Snow
11:55 AM 17.6 °F 2.7 °F 17.6 °F 100% 29.85 in 2.5 mi East 16.1 mph - 0.42 in Snow Light Snow
12:15 PM 15.8 °F 1.4 °F 15.8 °F 100% 29.86 in 3.0 mi ENE 13.8 mph - 0.01 in Snow Light Snow
12:35 PM 15.8 °F 0.3 °F 15.8 °F 100% 29.85 in 10.0 mi ENE 16.1 mph - 0.02 in Rain Light Freezing Rain
12:55 PM 15.8 °F 0.3 °F 15.8 °F 100% 29.86 in 10.0 mi ENE 16.1 mph - 0.02 in   Overcast
1:15 PM 15.8 °F 0.3 °F 15.8 °F 100% 29.86 in 10.0 mi ENE 16.1 mph - N/A Snow Light Snow
1:35 PM 15.8 °F 0.3 °F 15.8 °F 100% 29.87 in 10.0 mi ENE 16.1 mph - N/A   Mostly Cloudy
1:55 PM 15.8 °F 0.3 °F 14.0 °F 93% 29.88 in 9.0 mi ENE 16.1 mph - N/A Snow Light Snow
2:15 PM 15.8 °F -0.2 °F 14.0 °F 93% 29.88 in 9.0 mi ENE 17.3 mph - N/A Snow Light Snow
2:35 PM 14.0 °F -2.0 °F 14.0 °F 100% 29.89 in 10.0 mi NE 16.1 mph - N/A Snow Light Snow
2:55 PM 14.0 °F -3.0 °F 14.0 °F 100% 29.90 in 8.0 mi NE 18.4 mph - N/A   Overcast
3:15 PM 10.4 °F -6.0 °F 10.4 °F 100% 29.92 in 10.0 mi NNE 15.0 mph - N/A   Overcast
3:35 PM 10.4 °F -4.8 °F 8.6 °F 92% 29.92 in 10.0 mi NE 12.7 mph - N/A   Overcast
3:55 PM 10.4 °F -5.4 °F 8.6 °F 92% 29.94 in 10.0 mi NE 13.8 mph - N/A   Overcast
4:15 PM 8.6 °F -8.3 °F 6.8 °F 92% 29.96 in 10.0 mi NNE 15.0 mph - N/A   Overcast
4:35 PM 8.6 °F -8.3 °F 6.8 °F 92% 29.97 in 10.0 mi NNE 15.0 mph - N/A   Overcast
4:55 PM 8.6 °F -6.3 °F 6.8 °F 92% 29.98 in 10.0 mi NNE 11.5 mph - N/A   Overcast
5:15 PM 8.6 °F -7.0 °F 6.8 °F 92% 29.99 in 10.0 mi NNE 12.7 mph - N/A   Overcast
5:35 PM 8.6 °F -6.3 °F 6.8 °F 92% 30.00 in 10.0 mi NNE 11.5 mph - N/A   Overcast
5:55 PM 8.6 °F -7.7 °F 5.0 °F 85% 30.01 in 10.0 mi NNE 13.8 mph - N/A   Overcast
6:15 PM 6.8 °F -10.0 °F 5.0 °F 92% 30.02 in 10.0 mi NNE 13.8 mph - N/A   Overcast
6:35 PM 6.8 °F -9.3 °F 5.0 °F 92% 30.03 in 10.0 mi North 12.7 mph - N/A   Overcast
6:55 PM 6.8 °F -10.0 °F 5.0 °F 92% 30.04 in 10.0 mi North 13.8 mph - N/A   Overcast
7:15 PM 5.0 °F -11.6 °F 3.2 °F 92% 30.05 in 10.0 mi NNE 12.7 mph - N/A   Overcast
7:35 PM 5.0 °F -11.6 °F 3.2 °F 92% 30.06 in 10.0 mi NNE 12.7 mph - N/A   Overcast
7:55 PM 5.0 °F -11.6 °F 1.4 °F 85% 30.06 in 10.0 mi NNE 12.7 mph - N/A   Overcast
8:15 PM 1.4 °F -15.3 °F -0.4 °F 92% 30.07 in 10.0 mi North 11.5 mph - N/A   Overcast
8:35 PM 3.2 °F -13.1 °F 1.4 °F 92% 30.08 in 10.0 mi North 11.5 mph - N/A   Mostly Cloudy
8:55 PM 3.2 °F -13.9 °F 1.4 °F 92% 30.08 in 10.0 mi North 12.7 mph - N/A   Overcast
9:15 PM 1.4 °F -15.3 °F -0.4 °F 92% 30.10 in 10.0 mi North 11.5 mph - N/A   Overcast
9:35 PM 1.4 °F -15.3 °F -0.4 °F 92% 30.11 in 10.0 mi North 11.5 mph - N/A   Overcast
9:55 PM 1.4 °F -16.1 °F -0.4 °F 92% 30.11 in 10.0 mi North 12.7 mph - N/A   Overcast
10:15 PM 1.4 °F -15.3 °F -0.4 °F 92% 30.12 in 10.0 mi North 11.5 mph - N/A   Overcast
10:35 PM 1.4 °F -14.5 °F -0.4 °F 92% 30.12 in 10.0 mi North 10.4 mph - N/A   Overcast
10:55 PM 1.4 °F -16.1 °F -0.4 °F 92% 30.11 in 10.0 mi NNE 12.7 mph - N/A   Overcast
11:15 PM 1.4 °F -15.3 °F -0.4 °F 92% 30.12 in 10.0 mi North 11.5 mph - N/A   Overcast
11:35 PM 1.4 °F -14.5 °F -0.4 °F 92% 30.12 in 10.0 mi NNE 10.4 mph - N/A   Overcast
11:55 PM 1.4 °F -14.5 °F -0.4 °F 92% 30.13 in 10.0 mi NNE 10.4 mph - N/A   Overcast